Stinnett, TX

10:38 AM CST on February 20, 2017 (GMT -0600)
Pampa / Mesa Vista

Weather History for KBPC - June, 2013

Change the Weather History Date:

Tuesday, June 25, 2013

  Actual Average (KBGD) Record (KBGD)
Temperature  
Mean Temperature 90 °F -  
Max Temperature 105 °F 89 °F 106 °F (1994)
Min Temperature 75 °F 64 °F 51 °F (1958)
Cooling Degree Days 25    
Growing Degree Days 40 (Base 50)    
Moisture  
Dew Point 47 °F    
Average Humidity 31    
Maximum Humidity 61    
Minimum Humidity 6    
Precipitation  
Precipitation 0.00 in - - ()
Sea Level Pressure  
Sea Level Pressure 29.81 in    
Wind  
Wind Speed 20 mph (SW)    
Max Wind Speed 31 mph    
Max Gust Speed 41 mph    
Visibility 10 miles    
Events      
Averages and records for this station are not official NWS values.
T = Trace of Precipitation, MM = Missing Value Source: NWS Daily Summary

Daily Weather History Graph

Daily Weather History Graph

Search for Another Location

Airport or City:

Trip Planner

Search our weather history database for the weather conditions in past years. The results will help you decide how hot, cold, wet, or windy it might be!

Date:

Astronomy

Jun. 25, 2013 Rise Set
Actual Time 6:29 AM CDT 9:04 PM CDT
Civil Twilight 5:58 AM CDT 9:34 PM CDT
Nautical Twilight 5:21 AM CDT 10:12 PM CDT
Astronomical Twilight 4:39 AM CDT 10:53 PM CDT
Moon 10:57 PM CDT (6/25) 9:06 AM CDT (6/25)
Length of Visible Light 15h 35m
Length of Day
14h 35m
Waning Gibbous, 92% of the Moon is Illuminated
Jun 25
Waning Gibbous
Jun 29
Last Quarter
Jul 8
New
Jul 15
First Quarter
Jul 22
Full

Hourly Weather History & Observations

Time (CDT) Temp. Heat Index Dew Point Humidity Pressure Visibility Wind Dir Wind Speed Gust Speed Precip Events Conditions
12:15 AM 82.4 °F 82.9 °F 60.8 °F 48% 29.81 in 10.0 mi South 27.6 mph 39.1 mph N/A   Clear
12:35 AM 82.4 °F 82.5 °F 59.0 °F 45% 29.82 in 10.0 mi South 28.8 mph 36.8 mph N/A   Clear
12:55 AM 82.4 °F 82.5 °F 59.0 °F 45% 29.82 in 10.0 mi South 29.9 mph 38.0 mph N/A   Clear
1:15 AM 82.4 °F 82.5 °F 59.0 °F 45% 29.82 in 10.0 mi South 28.8 mph 41.4 mph N/A   Clear
1:35 AM 82.4 °F 82.5 °F 59.0 °F 45% 29.82 in 10.0 mi South 31.1 mph 39.1 mph N/A   Clear
1:55 AM 80.6 °F 81.1 °F 59.0 °F 48% 29.82 in 10.0 mi South 27.6 mph 35.7 mph N/A   Clear
2:15 AM 80.6 °F 81.1 °F 59.0 °F 48% 29.84 in 10.0 mi SSW 19.6 mph 32.2 mph N/A   Clear
2:35 AM 80.6 °F 81.1 °F 59.0 °F 48% 29.84 in 10.0 mi SSW 19.6 mph 25.3 mph N/A   Clear
2:55 AM 78.8 °F - 59.0 °F 51% 29.83 in 10.0 mi SSW 16.1 mph 21.9 mph N/A   Clear
3:15 AM 78.8 °F - 59.0 °F 51% 29.83 in 10.0 mi SSW 19.6 mph 27.6 mph N/A   Clear
3:35 AM 78.8 °F - 59.0 °F 51% 29.82 in 10.0 mi SSW 21.9 mph 28.8 mph N/A   Clear
3:55 AM 78.8 °F - 59.0 °F 51% 29.82 in 10.0 mi SSW 18.4 mph 26.5 mph N/A   Clear
4:15 AM 78.8 °F - 59.0 °F 51% 29.81 in 10.0 mi SSW 20.7 mph 34.5 mph N/A   Clear
4:35 AM 78.8 °F - 59.0 °F 51% 29.82 in 10.0 mi SW 20.7 mph 31.1 mph N/A   Clear
4:55 AM 78.8 °F - 60.8 °F 54% 29.81 in 10.0 mi SW 19.6 mph 27.6 mph N/A   Clear
5:15 AM 77.0 °F - 60.8 °F 57% 29.82 in 10.0 mi SSW 23.0 mph 27.6 mph N/A   Clear
5:35 AM 77.0 °F - 60.8 °F 57% 29.83 in 10.0 mi SW 19.6 mph 25.3 mph N/A   Clear
5:55 AM 77.0 °F - 60.8 °F 57% 29.83 in 10.0 mi SW 20.7 mph 27.6 mph N/A   Clear
6:15 AM 77.0 °F - 60.8 °F 57% 29.84 in 10.0 mi SW 18.4 mph 27.6 mph N/A   Clear
6:35 AM 75.2 °F - 60.8 °F 61% 29.85 in 10.0 mi SW 12.7 mph - N/A   Clear
6:55 AM 75.2 °F - 60.8 °F 61% 29.86 in 10.0 mi SW 16.1 mph - N/A   Clear
7:15 AM 75.2 °F - 60.8 °F 61% 29.86 in 10.0 mi SW 19.6 mph 24.2 mph N/A   Clear
7:35 AM 77.0 °F - 60.8 °F 57% 29.86 in 10.0 mi SW 16.1 mph 24.2 mph N/A   Clear
7:55 AM 77.0 °F - 60.8 °F 57% 29.86 in 10.0 mi SSW 21.9 mph 26.5 mph N/A   Clear
8:15 AM 77.0 °F - 60.8 °F 57% 29.86 in 10.0 mi SW 20.7 mph 32.2 mph N/A   Clear
8:35 AM 78.8 °F - 60.8 °F 54% 29.86 in 10.0 mi SW 23.0 mph 29.9 mph N/A   Clear
8:55 AM 78.8 °F - 60.8 °F 54% 29.86 in 10.0 mi SW 19.6 mph 33.4 mph N/A   Clear
9:15 AM 78.8 °F - 60.8 °F 54% 29.87 in 10.0 mi SW 21.9 mph 33.4 mph N/A   Clear
9:35 AM 78.8 °F - 60.8 °F 54% 29.87 in 10.0 mi SW 23.0 mph 29.9 mph N/A   Clear
9:55 AM 82.4 °F 82.9 °F 60.8 °F 48% 29.87 in 10.0 mi SW 24.2 mph 29.9 mph N/A   Clear
10:15 AM 84.2 °F 84.4 °F 60.8 °F 45% 29.87 in 10.0 mi SW 19.6 mph 25.3 mph N/A   Clear
10:35 AM 86.0 °F 86.1 °F 60.8 °F 43% 29.86 in 10.0 mi SW 17.3 mph 23.0 mph N/A   Clear
10:55 AM 87.8 °F 87.1 °F 59.0 °F 38% 29.85 in 10.0 mi WSW 20.7 mph 25.3 mph N/A   Clear
11:15 AM 87.8 °F 86.1 °F 55.4 °F 33% 29.85 in 10.0 mi WSW 17.3 mph 24.2 mph N/A   Clear
11:35 AM 89.6 °F 87.3 °F 53.6 °F 29% 29.85 in 10.0 mi SW 17.3 mph 24.2 mph N/A   Clear
11:55 AM 91.4 °F - 51.8 °F 26% 29.85 in 10.0 mi SW 15.0 mph 21.9 mph N/A   Clear
12:15 PM 93.2 °F - 51.8 °F 24% 29.86 in 10.0 mi WSW 16.1 mph 23.0 mph N/A   Clear
12:35 PM 95.0 °F - 50.0 °F 22% 29.86 in 10.0 mi WSW 12.7 mph 19.6 mph N/A   Clear
12:55 PM 96.8 °F - 48.2 °F 19% 29.85 in 10.0 mi SW 13.8 mph 21.9 mph N/A   Clear
1:15 PM 96.8 °F - 44.6 °F 17% 29.84 in 10.0 mi SSW 16.1 mph - N/A   Clear
1:35 PM 98.6 °F - 42.8 °F 15% 29.84 in 10.0 mi SSW 10.4 mph 17.3 mph N/A   Clear
1:55 PM 98.6 °F - 42.8 °F 15% 29.83 in 10.0 mi West 9.2 mph 16.1 mph N/A   Clear
2:15 PM 100.4 °F - 41.0 °F 13% 29.83 in 10.0 mi SSW 13.8 mph 19.6 mph N/A   Clear
2:35 PM 102.2 °F - 41.0 °F 12% 29.82 in 10.0 mi SSW 12.7 mph 18.4 mph N/A   Clear
2:55 PM 104.0 °F - 35.6 °F 9% 29.81 in 10.0 mi WSW 10.4 mph 21.9 mph N/A   Clear
3:15 PM 105.8 °F - 32.0 °F 8% 29.80 in 10.0 mi WSW 21.9 mph 27.6 mph N/A   Clear
3:35 PM 105.8 °F - 30.2 °F 7% 29.80 in 10.0 mi WSW 19.6 mph 32.2 mph N/A   Clear
3:55 PM 105.8 °F - 32.0 °F 8% 29.78 in 10.0 mi West 19.6 mph 26.5 mph N/A   Unknown
4:15 PM 105.8 °F - 30.2 °F 7% 29.78 in 10.0 mi WSW 18.4 mph 25.3 mph N/A   Clear
4:35 PM 104.0 °F - 28.4 °F 7% 29.78 in 10.0 mi West 12.7 mph 19.6 mph N/A   Clear
4:55 PM 105.8 °F - 24.8 °F 6% 29.77 in 10.0 mi WSW 23.0 mph - N/A   Clear
5:15 PM 104.0 °F - 24.8 °F 6% 29.76 in 10.0 mi WSW 13.8 mph - N/A   Clear
5:35 PM 105.8 °F - 24.8 °F 6% 29.76 in 10.0 mi WSW 19.6 mph 25.3 mph N/A   Clear
5:55 PM 104.0 °F - 26.6 °F 7% 29.76 in 10.0 mi West 15.0 mph 18.4 mph N/A   Clear
6:15 PM 104.0 °F - 28.4 °F 7% 29.76 in 10.0 mi West 11.5 mph - N/A   Clear
6:35 PM 104.0 °F - 26.6 °F 7% 29.75 in 10.0 mi West 10.4 mph 16.1 mph N/A   Clear
6:55 PM 104.0 °F - 28.4 °F 7% 29.75 in 10.0 mi West 9.2 mph - N/A   Clear
7:15 PM 100.4 °F - 30.2 °F 9% 29.75 in 10.0 mi WNW 6.9 mph - N/A   Clear
7:35 PM 98.6 °F - 30.2 °F 9% 29.75 in 10.0 mi WNW 3.5 mph - N/A   Clear
7:55 PM 98.6 °F - 32.0 °F 10% 29.75 in 10.0 mi Calm Calm - N/A   Clear
8:15 PM 96.8 °F - 33.8 °F 11% 29.75 in 10.0 mi Calm Calm - N/A   Clear
8:35 PM 95.0 °F - 35.6 °F 12% 29.75 in 10.0 mi Calm Calm - N/A   Clear
8:55 PM 95.0 °F - 35.6 °F 12% 29.75 in 10.0 mi ESE 3.5 mph - N/A   Clear
9:15 PM 91.4 °F - 32.0 °F 12% 29.76 in 10.0 mi SE 5.8 mph - N/A   Clear
9:35 PM 87.8 °F - 32.0 °F 14% 29.76 in 10.0 mi SSE 6.9 mph - N/A   Clear
9:55 PM 86.0 °F - 32.0 °F 14% 29.76 in 10.0 mi SSE 6.9 mph - N/A   Clear
10:15 PM 80.6 °F - 32.0 °F 17% 29.76 in 10.0 mi South 11.5 mph - N/A   Clear
10:35 PM 84.2 °F - 30.2 °F 14% 29.76 in 10.0 mi South 8.1 mph - N/A   Clear
10:55 PM 82.4 °F - 32.0 °F 16% 29.78 in 10.0 mi Calm Calm - N/A   Clear
11:15 PM 82.4 °F - 32.0 °F 16% 29.78 in 10.0 mi SSW 10.4 mph - N/A   Clear
11:35 PM 82.4 °F - 33.8 °F 17% 29.78 in 10.0 mi SSW 12.7 mph - N/A   Clear
11:55 PM 80.6 °F - 37.4 °F 21% 29.79 in 10.0 mi SW 11.5 mph - N/A   Clear